EW2310 Weather Reports


Display with metric or nautical units.
time (UTC)temp
F
wind
direction
speed
MPH
gust
MPH
rain 1hr
in
rain 24hr
in
rain mn
in
humidity
%
barometer
mb
20180426205018 65 323 3.0 6.0 0.00 0.00 0.00 70 1011.6
20180426204518 65 331 2.0 7.0 0.00 0.00 0.00 70 1011.6
20180426204018 65 313 5.0 8.0 0.00 0.00 0.00 69 1011.6
20180426203518 65 306 1.0 5.0 0.00 0.00 0.00 70 1011.7
20180426203018 65 319 1.0 1.0 0.00 0.00 0.00 70 1011.6
20180426202518 65 311 0.0 0.0 0.00 0.00 0.00 70 1011.6
20180426202018 65 321 0.0 0.0 0.00 0.00 0.00 73 1011.7
20180426201518 66 313 0.0 1.0 0.00 0.00 0.00 73 1011.6
20180426201018 66 315 0.0 4.0 0.00 0.00 0.00 73 1011.6
20180426200518 66 344 5.0 5.0 0.00 0.00 0.00 73 1011.7
20180426200018 66 313 2.0 3.0 0.00 0.00 0.00 73 1011.8
20180426195518 66 305 0.0 1.0 0.00 0.00 0.00 73 1011.9
20180426195018 66 317 0.0 4.0 0.00 0.00 0.00 73 1011.8
20180426194518 66 284 2.0 2.0 0.00 0.00 0.00 73 1011.9
20180426194018 66 275 0.0 3.0 0.00 0.00 0.00 72 1011.8
20180426193518 66 296 0.0 1.0 0.00 0.00 0.00 72 1011.8
20180426193018 66 314 0.0 0.0 0.00 0.00 0.00 73 1011.7
20180426192518 66 314 0.0 3.0 0.00 0.00 0.00 73 1011.7
20180426192018 66 314 2.0 4.0 0.00 0.00 0.00 73 1011.7
20180426191518 67 291 0.0 0.0 0.00 0.00 0.00 74 1011.6
20180426191018 67 293 0.0 0.0 0.00 0.00 0.00 74 1011.6
20180426190518 67 313 0.0 3.0 0.00 0.00 0.00 73 1011.6
20180426190018 67 310 0.0 0.0 0.00 0.00 0.00 72 1011.6
20180426185518 67 320 0.0 5.0 0.00 0.00 0.00 71 1011.6
20180426185018 67 318 0.0 0.0 0.00 0.00 0.00 70 1011.5
20180426184518 67 325 0.0 0.0 0.00 0.00 0.00 69 1011.5
20180426184018 67 316 0.0 0.0 0.00 0.00 0.00 69 1011.4
20180426183518 67 317 0.0 1.0 0.00 0.00 0.00 69 1011.4
20180426183018 67 285 0.0 0.0 0.00 0.00 0.00 70 1011.3
20180426182518 67 285 0.0 0.0 0.00 0.00 0.00 70 1011.3
20180426182018 67 285 0.0 0.0 0.00 0.00 0.00 71 1011.3
20180426181518 67 284 0.0 0.0 0.00 0.00 0.00 71 1011.2
20180426181018 67 316 0.0 3.0 0.00 0.00 0.00 71 1011.2
20180426180518 68 302 2.0 2.0 0.00 0.00 0.00 70 1011.1
20180426180018 68 255 0.0 2.0 0.00 0.00 0.00 69 1011.2
20180426175518 68 246 2.0 3.0 0.00 0.00 0.00 68 1011.3
20180426175018 68 301 0.0 3.0 0.00 0.00 0.00 67 1011.3
20180426174518 68 305 0.0 0.0 0.00 0.00 0.00 67 1011.2
20180426174018 69 255 0.0 2.0 0.00 0.00 0.00 66 1011.2
20180426173518 69 263 0.0 1.0 0.00 0.00 0.00 66 1011.2
20180426173018 69 279 0.0 0.0 0.00 0.00 0.00 66 1011.2
20180426172518 69 259 0.0 1.0 0.00 0.00 0.00 65 1011.2
20180426172018 69 254 0.0 2.0 0.00 0.00 0.00 65 1011.1
20180426171518 69 247 0.0 1.0 0.00 0.00 0.00 66 1011.2
20180426171018 69 240 0.0 1.0 0.00 0.00 0.00 65 1011.1
20180426170518 69 236 0.0 2.0 0.00 0.00 0.00 66 1011.2
20180426170018 70 245 0.0 1.0 0.00 0.00 0.00 65 1011.1
20180426165518 70 275 0.0 4.0 0.00 0.00 0.00 65 1011.1
20180426165018 70 279 0.0 2.0 0.00 0.00 0.00 65 1011.1
20180426164518 70 188 3.0 4.0 0.00 0.00 0.00 64 1011.1
20180426164018 71 263 0.0 1.0 0.00 0.00 0.00 64 1011.2
20180426163518 70 238 0.0 1.0 0.00 0.00 0.00 65 1011.2
20180426163018 70 252 0.0 2.0 0.00 0.00 0.00 64 1011.2
20180426162518 71 278 1.0 4.0 0.00 0.00 0.00 64 1011.2
20180426162018 71 230 1.0 3.0 0.00 0.00 0.00 63 1011.2
20180426161518 71 240 0.0 3.0 0.00 0.00 0.00 63 1011.2
20180426161018 71 220 0.0 4.0 0.00 0.00 0.00 62 1011.3
20180426160518 71 212 0.0 3.0 0.00 0.00 0.00 60 1011.2
20180426160018 71 323 0.0 4.0 0.00 0.00 0.00 61 1011.2
20180426155518 71 262 1.0 4.0 0.00 0.00 0.00 63 1011.3
20180426155018 72 149 3.0 4.0 0.00 0.00 0.00 62 1011.2
20180426154518 72 228 1.0 4.0 0.00 0.00 0.00 61 1011.3
20180426154018 72 252 1.0 7.0 0.00 0.00 0.00 60 1011.3
20180426153518 72 50 1.0 4.0 0.00 0.00 0.00 59 1011.2
20180426153018 72 234 1.0 6.0 0.00 0.00 0.00 59 1011.2
20180426152518 72 195 1.0 4.0 0.00 0.00 0.00 58 1011.2
20180426152018 73 139 1.0 4.0 0.00 0.00 0.00 58 1011.3
20180426151518 73 151 2.0 4.0 0.00 0.00 0.00 58 1011.2
20180426151018 74 324 1.0 7.0 0.00 0.00 0.00 56 1011.3
20180426150518 74 171 1.0 6.0 0.00 0.00 0.00 53 1011.3
20180426150018 74 205 2.0 4.0 0.00 0.00 0.00 53 1011.3
20180426145518 74 213 2.0 6.0 0.00 0.00 0.00 52 1011.3
20180426145018 74 183 0.0 4.0 0.00 0.00 0.00 52 1011.2
20180426144518 74 253 0.0 4.0 0.00 0.00 0.00 51 1011.2
20180426144018 74 90 0.0 4.0 0.00 0.00 0.00 52 1011.3
20180426143518 74 144 0.0 4.0 0.00 0.00 0.00 53 1011.3
20180426143018 74 238 2.0 3.0 0.00 0.00 0.00 53 1011.3
20180426142518 74 44 1.0 4.0 0.00 0.00 0.00 52 1011.4
20180426142018 74 136 1.0 5.0 0.00 0.00 0.00 49 1011.4
20180426141518 74 244 3.0 3.0 0.00 0.00 0.00 50 1011.4
20180426141018 74 53 3.0 7.0 0.00 0.00 0.00 48 1011.3
20180426140518 74 119 0.0 4.0 0.00 0.00 0.00 49 1011.3
20180426140018 74 261 0.0 3.0 0.00 0.00 0.00 50 1011.3
20180426135518 73 344 0.0 6.0 0.00 0.00 0.00 51 1011.4
20180426135017 73 188 0.0 3.0 0.00 0.00 0.00 53 1011.4
20180426134518 73 141 1.0 6.0 0.00 0.00 0.00 53 1011.5
20180426134018 74 139 2.0 5.0 0.00 0.00 0.00 52 1011.5
20180426133517 74 228 1.0 7.0 0.00 0.00 0.00 52 1011.4
20180426133017 74 146 0.0 4.0 0.00 0.00 0.00 52 1011.6
20180426132518 74 265 4.0 7.0 0.00 0.00 0.00 51 1011.6
20180426132017 74 153 0.0 4.0 0.00 0.00 0.00 51 1011.7
20180426131517 75 5 2.0 6.0 0.00 0.00 0.00 51 1011.7
20180426131018 75 227 5.0 5.0 0.00 0.00 0.00 51 1011.7
20180426130518 75 180 2.0 5.0 0.00 0.00 0.00 49 1011.8
20180426130017 75 5 0.0 1.0 0.00 0.00 0.00 47 1011.8
20180426125517 75 199 0.0 2.0 0.00 0.00 0.00 48 1011.8
20180426125017 75 190 0.0 5.0 0.00 0.00 0.00 48 1011.9
20180426124517 75 174 1.0 4.0 0.00 0.00 0.00 48 1011.9
20180426124017 75 151 3.0 9.0 0.00 0.00 0.00 47 1012.0
20180426123517 75 140 2.0 7.0 0.00 0.00 0.00 47 1012.0
20180426123018 75 23 1.0 10.0 0.00 0.00 0.00 47 1012.0
20180426122517 75 197 9.0 9.0 0.00 0.00 0.00 46 1012.1
20180426122017 75 215 0.0 9.0 0.00 0.00 0.00 47 1012.1
20180426121517 74 202 8.0 8.0 0.00 0.00 0.00 48 1012.1
20180426121017 74 217 1.0 7.0 0.00 0.00 0.00 51 1012.1
20180426120517 74 111 1.0 9.0 0.00 0.00 0.00 50 1012.2
20180426120017 74 327 2.0 4.0 0.00 0.00 0.00 52 1012.2
20180426115517 74 193 1.0 9.0 0.00 0.00 0.00 53 1012.3
20180426115017 74 260 2.0 4.0 0.00 0.00 0.00 54 1012.3
20180426114517 74 195 3.0 8.0 0.00 0.00 0.00 54 1012.3
20180426114017 74 300 2.0 8.0 0.00 0.00 0.00 52 1012.4
20180426113517 74 230 0.0 6.0 0.00 0.00 0.00 51 1012.6
20180426113026 74 208 0.0 6.0 0.00 0.00 0.00 54 1012.5
20180426112517 73 178 3.0 12.0 0.00 0.00 0.00 56 1012.4
20180426112017 73 207 1.0 8.0 0.00 0.00 0.00 57 1012.6
20180426111517 73 236 2.0 8.0 0.00 0.00 0.00 55 1012.6
20180426111017 73 295 0.0 8.0 0.00 0.00 0.00 54 1012.6
20180426110520 73 52 2.0 10.0 0.00 0.00 0.00 55 1012.6
20180426110017 73 107 0.0 5.0 0.00 0.00 0.00 56 1012.8
20180426105517 73 350 2.0 14.0 0.00 0.00 0.00 54 1012.8
20180426105017 74 275 2.0 9.0 0.00 0.00 0.00 55 1012.8
20180426104517 74 198 1.0 7.0 0.00 0.00 0.00 54 1012.8
20180426104017 75 109 1.0 7.0 0.00 0.00 0.00 55 1012.9
20180426103517 75 215 3.0 7.0 0.00 0.00 0.00 54 1012.9
20180426103017 75 246 3.0 5.0 0.00 0.00 0.00 57 1012.9
20180426102517 75 164 1.0 5.0 0.00 0.00 0.00 57 1012.9
20180426102020 75 333 2.0 4.0 0.00 0.00 0.00 57 1013.0
20180426101520 75 294 1.0 4.0 0.00 0.00 0.00 56 1012.9
20180426101017 75 246 0.0 4.0 0.00 0.00 0.00 55 1013.0
20180426100517 75 162 0.0 4.0 0.00 0.00 0.00 55 1012.9
20180426100020 75 240 1.0 1.0 0.00 0.00 0.00 57 1013.0
20180426095517 75 217 0.0 3.0 0.00 0.00 0.00 57 1013.0
20180426095017 74 167 3.0 6.0 0.00 0.00 0.00 54 1013.1
20180426094520 74 167 3.0 5.0 0.00 0.00 0.00 54 1013.1
20180426094020 74 165 1.0 6.0 0.00 0.00 0.00 47 1013.2
20180426093520 73 163 1.0 9.0 0.00 0.00 0.00 47 1013.3
20180426093017 73 136 5.0 7.0 0.00 0.00 0.00 46 1013.3
20180426092517 73 155 4.0 6.0 0.00 0.00 0.00 49 1013.3
20180426092017 73 152 2.0 4.0 0.00 0.00 0.00 49 1013.5
20180426091017 73 140 0.0 2.0 0.00 0.00 0.00 50 1013.5
20180426090517 73 118 1.0 6.0 0.00 0.00 0.00 49 1013.5
20180426090021 72 155 2.0 3.0 0.00 0.00 0.00 52 1013.6
20180426085517 72 172 0.0 2.0 0.00 0.00 0.00 51 1013.7
20180426085017 71 198 0.0 4.0 0.00 0.00 0.00 53 1013.7
20180426084517 71 55 0.0 5.0 0.00 0.00 0.00 54 1013.7
20180426084020 70 173 1.0 3.0 0.00 0.00 0.00 55 1013.8
20180426083517 70 173 2.0 6.0 0.00 0.00 0.00 56 1013.8
20180426083020 70 44 1.0 6.0 0.00 0.00 0.00 58 1013.9
20180426082517 70 138 0.0 6.0 0.00 0.00 0.00 59 1013.9
20180426082017 69 158 2.0 4.0 0.00 0.00 0.00 58 1013.8
20180426081517 69 74 2.0 7.0 0.00 0.00 0.00 60 1013.8
20180426081017 69 131 2.0 7.0 0.00 0.00 0.00 59 1013.8
20180426080517 69 134 1.0 6.0 0.00 0.00 0.00 62 1013.9
20180426080017 69 125 4.0 6.0 0.00 0.00 0.00 62 1013.9
20180426075517 68 181 0.0 3.0 0.00 0.00 0.00 62 1013.9
20180426075017 68 153 2.0 5.0 0.00 0.00 0.00 62 1013.9
20180426074517 67 209 3.0 4.0 0.00 0.00 0.00 62 1013.9
20180426074017 67 153 2.0 5.0 0.00 0.00 0.00 62 1014.0
20180426073517 67 159 5.0 5.0 0.00 0.00 0.00 60 1014.0
20180426073017 66 190 0.0 6.0 0.00 0.00 0.00 60 1014.0
20180426072517 66 159 2.0 6.0 0.00 0.00 0.00 58 1014.0
20180426072017 66 163 0.0 5.0 0.00 0.00 0.00 55 1014.1
20180426071517 65 166 5.0 5.0 0.00 0.00 0.00 55 1014.1
20180426071017 65 165 4.0 4.0 0.00 0.00 0.00 57 1014.1
20180426070517 65 142 2.0 6.0 0.00 0.00 0.00 56 1014.1
20180426070017 64 167 4.0 8.0 0.00 0.00 0.00 56 1014.1
20180426065518 64 172 2.0 6.0 0.00 0.00 0.00 56 1014.1
20180426065018 65 152 0.0 8.0 0.00 0.00 0.00 55 1014.1
20180426064517 65 160 5.0 5.0 0.00 0.00 0.00 53 1014.0
20180426064017 65 169 0.0 1.0 0.00 0.00 0.00 53 1014.0
20180426063517 65 182 0.0 0.0 0.00 0.00 0.00 53 1014.0
20180426063017 65 182 0.0 0.0 0.00 0.00 0.00 53 1014.0
20180426062517 64 182 0.0 0.0 0.00 0.00 0.00 55 1014.0
20180426062017 64 186 0.0 0.0 0.00 0.00 0.00 59 1014.0
20180426061517 64 315 0.0 0.0 0.00 0.00 0.00 55 1013.9
20180426061017 63 315 0.0 0.0 0.00 0.00 0.00 55 1013.9
20180426060517 63 315 0.0 0.0 0.00 0.00 0.00 54 1013.8
20180426060017 62 315 0.0 0.0 0.00 0.00 0.00 54 1013.8
20180426055517 63 315 0.0 0.0 0.00 0.00 0.00 53 1013.7
20180426055017 63 311 0.0 0.0 0.00 0.00 0.00 53 1013.6
20180426054517 63 314 0.0 0.0 0.00 0.00 0.00 52 1013.6
20180426054017 63 325 0.0 0.0 0.00 0.00 0.00 54 1013.6
20180426053517 63 334 0.0 0.0 0.00 0.00 0.00 55 1013.6
20180426053017 62 343 0.0 0.0 0.00 0.00 0.00 55 1013.5
20180426052517 62 343 0.0 0.0 0.00 0.00 0.00 54 1013.4
20180426052018 62 40 0.0 0.0 0.00 0.00 0.00 53 1013.4
20180426051517 62 60 0.0 0.0 0.00 0.00 0.00 52 1013.4
20180426051017 61 63 0.0 0.0 0.00 0.00 0.00 52 1013.4
20180426050517 61 63 0.0 0.0 0.00 0.00 0.00 52 1013.4
20180426050017 60 63 0.0 0.0 0.00 0.00 0.00 53 1013.3
20180426045516 60 63 0.0 0.0 0.00 0.00 0.00 55 1013.3
20180426045017 59 63 0.0 0.0 0.00 0.00 0.00 54 1013.3
20180426044516 59 63 0.0 0.0 0.00 0.00 0.00 55 1013.3
20180426044016 59 65 0.0 0.0 0.00 0.00 0.00 56 1013.4
20180426043516 58 65 0.0 0.0 0.00 0.00 0.00 55 1013.4
20180426043016 58 65 0.0 0.0 0.00 0.00 0.00 56 1013.3
20180426042517 58 65 0.0 0.0 0.00 0.00 0.00 57 1013.3
20180426042016 58 65 0.0 0.0 0.00 0.00 0.00 58 1013.3
20180426041516 58 67 0.0 0.0 0.00 0.00 0.00 58 1013.3
20180426041017 58 80 0.0 1.0 0.00 0.00 0.00 61 1013.3
20180426040516 58 146 0.0 0.0 0.00 0.00 0.00 62 1013.5
20180426040016 57 146 0.0 0.0 0.00 0.00 0.00 63 1013.5
20180426035516 57 146 0.0 0.0 0.00 0.00 0.00 64 1013.6
20180426035016 57 146 0.0 0.0 0.00 0.00 0.00 64 1013.6
20180426034516 57 146 0.0 0.0 0.00 0.00 0.00 63 1013.5
20180426034016 59 205 0.0 0.0 0.00 0.00 0.00 60 1013.6
20180426033516 60 205 0.0 0.0 0.00 0.00 0.00 57 1013.6
20180426033016 61 206 0.0 1.0 0.00 0.00 0.00 55 1013.6
20180426032516 61 308 0.0 1.0 0.00 0.00 0.00 55 1013.7
20180426032016 61 308 0.0 1.0 0.00 0.00 0.00 55 1013.7
20180426031516 61 308 0.0 2.0 0.00 0.00 0.00 55 1013.8
20180426031016 61 312 0.0 0.0 0.00 0.00 0.00 55 1013.8
20180426030516 61 312 0.0 2.0 0.00 0.00 0.00 56 1013.8
20180426030016 61 323 0.0 0.0 0.00 0.00 0.00 57 1013.8
20180426025516 61 323 0.0 0.0 0.00 0.00 0.00 57 1013.9
20180426025016 61 323 0.0 0.0 0.00 0.00 0.00 57 1013.9
20180426024516 61 323 0.0 0.0 0.00 0.00 0.00 58 1013.9
20180426024016 61 330 0.0 0.0 0.00 0.00 0.00 59 1013.9
20180426023516 61 328 0.0 4.0 0.00 0.00 0.00 59 1013.9
20180426023016 60 323 0.0 1.0 0.00 0.00 0.00 59 1014.0
20180426022516 60 329 0.0 0.0 0.00 0.00 0.00 59 1014.0
20180426022016 60 336 0.0 4.0 0.00 0.00 0.00 59 1014.0
20180426021516 60 324 2.0 4.0 0.00 0.00 0.00 59 1014.0
20180426021016 60 315 0.0 3.0 0.00 0.00 0.00 59 1014.1
20180426020516 60 327 0.0 4.0 0.00 0.00 0.00 59 1014.0
20180426020016 60 332 1.0 5.0 0.00 0.00 0.00 59 1014.1
20180426015516 60 332 2.0 5.0 0.00 0.00 0.00 58 1014.2
20180426015016 60 343 4.0 8.0 0.00 0.00 0.00 57 1014.2
20180426014516 59 302 2.0 6.0 0.00 0.00 0.00 56 1014.3
20180426014016 59 306 3.0 6.0 0.00 0.00 0.00 57 1014.3
20180426013516 59 317 0.0 4.0 0.00 0.00 0.00 57 1014.3
20180426013016 59 327 4.0 4.0 0.00 0.00 0.00 58 1014.4
20180426012516 60 317 1.0 5.0 0.00 0.00 0.00 58 1014.4
20180426012016 60 312 0.0 4.0 0.00 0.00 0.00 58 1014.5
20180426011516 61 298 0.0 3.0 0.00 0.00 0.00 57 1014.5
20180426011016 61 321 0.0 8.0 0.00 0.00 0.00 56 1014.5
20180426010516 61 332 3.0 8.0 0.00 0.00 0.00 55 1014.5
20180426010016 61 342 1.0 4.0 0.00 0.00 0.00 59 1014.5
20180426005516 61 330 4.0 5.0 0.00 0.00 0.00 61 1014.7
20180426005016 61 319 2.0 6.0 0.00 0.00 0.00 61 1014.7
20180426004516 61 323 3.0 8.0 0.00 0.00 0.00 61 1014.6
20180426004016 61 300 2.0 4.0 0.00 0.00 0.00 61 1014.6
20180426003516 61 313 0.0 1.0 0.00 0.00 0.00 60 1014.7
20180426003016 61 305 0.0 3.0 0.00 0.00 0.00 61 1014.8
20180426002516 61 307 0.0 4.0 0.00 0.00 0.00 60 1014.9
20180426002016 61 346 2.0 4.0 0.00 0.00 0.00 58 1014.9
20180426001516 61 327 3.0 6.0 0.00 0.00 0.00 56 1014.9
20180426001016 61 320 2.0 8.0 0.00 0.00 0.00 56 1015.0
20180426000516 61 339 4.0 5.0 0.00 0.00 0.00 58 1015.0
20180426000016 62 314 0.0 2.0 0.00 0.00 0.00 58 1015.1
20180425235516 62 317 1.0 3.0 0.00 0.00 0.00 58 1015.1
20180425235016 62 313 0.0 1.0 0.00 0.00 0.00 57 1015.1
20180425234516 62 325 0.0 0.0 0.00 0.00 0.00 58 1015.2
20180425234016 62 317 0.0 0.0 0.00 0.00 0.00 59 1015.3
20180425233516 62 319 0.0 0.0 0.00 0.00 0.00 58 1015.4
20180425233016 62 320 0.0 0.0 0.00 0.00 0.00 59 1015.4
20180425232516 63 327 0.0 0.0 0.00 0.00 0.00 58 1015.4
20180425232016 63 327 0.0 0.0 0.00 0.00 0.00 59 1015.4
20180425231516 63 327 0.0 0.0 0.00 0.00 0.00 57 1015.4
20180425231016 63 281 0.0 0.0 0.00 0.00 0.00 60 1015.5
20180425230516 62 277 0.0 0.0 0.00 0.00 0.00 62 1015.6
20180425230016 63 266 0.0 0.0 0.00 0.00 0.00 63 1015.7
20180425225516 63 265 0.0 0.0 0.00 0.00 0.00 62 1015.8
20180425225016 62 265 0.0 0.0 0.00 0.00 0.00 63 1015.7
20180425224516 62 198 0.0 0.0 0.00 0.00 0.00 65 1015.8
20180425224016 62 198 0.0 0.0 0.00 0.00 0.00 67 1015.8
20180425223516 62 198 0.0 0.0 0.00 0.00 0.00 67 1015.8
20180425223016 62 198 0.0 0.0 0.00 0.00 0.00 68 1015.7
20180425222516 62 155 0.0 0.0 0.00 0.00 0.00 70 1015.7
20180425222016 62 155 0.0 0.0 0.00 0.00 0.00 71 1015.7
20180425221516 62 155 0.0 0.0 0.00 0.00 0.00 71 1015.6
20180425221016 62 155 0.0 0.0 0.00 0.00 0.00 72 1015.7
20180425220516 62 155 0.0 0.0 0.00 0.00 0.00 73 1015.8
20180425220016 62 155 0.0 0.0 0.00 0.00 0.00 73 1015.8
20180425215516 62 155 0.0 0.0 0.00 0.00 0.00 73 1015.9
20180425215016 62 155 0.0 0.0 0.00 0.00 0.00 73 1015.9
20180425214516 62 155 0.0 0.0 0.00 0.00 0.00 72 1015.9
20180425214016 62 155 0.0 0.0 0.00 0.00 0.00 73 1016.0
20180425213516 62 155 0.0 0.0 0.00 0.00 0.00 73 1016.0
20180425213016 62 155 0.0 0.0 0.00 0.00 0.00 73 1016.0
20180425212516 63 155 0.0 0.0 0.00 0.00 0.00 74 1016.1
20180425212016 63 155 0.0 0.0 0.00 0.00 0.00 74 1016.1
20180425211516 63 155 0.0 0.0 0.00 0.00 0.00 73 1016.2
20180425211016 63 155 0.0 0.0 0.00 0.00 0.00 73 1016.3
20180425210516 63 155 0.0 0.0 0.00 0.00 0.00 73 1016.3
20180425210016 63 155 0.0 0.0 0.00 0.00 0.00 73 1016.3
20180425205516 64 155 0.0 0.0 0.00 0.00 0.00 73 1016.3